Starlink 31844

operational
NORAD ID: 60583 Int'l Des: 2024-150 Owner: SPXS Country: US Constellation: starlink
LEOCIRCULAR

About Starlink 31844

Description loading...

Live Position

Loading 3D Globe...

Upcoming Passes

Altitude History

Altitude vs Time

uPlot chart will show altitude changes over time

Two-Line Element Set

1 60583U 24150A 25306.37809986 .00001250 00000-0 54345-4 0 9993
2 60583 53.1602 178.0762 0001435 89.1186 270.9979 15.30187725 68554
Epoch: Nov 2, 2025 • Age: 38 hours

Current Status

Altitude 480.8 km
Velocity 7.63 km/s
Sub-Earth Point 53.05°N, 121.46°W
Launch Date Aug 20, 2024
Age 1.2 years
Type internet

Technical Details

Classification Payload
Mass 730.00 kg
Dry Mass 700.00 kg
Total Mass 730.00 kg
Length 0.30 m
Diameter 4.10 m
Span 29.00 m
Shape Box + pan
Manufacturer SPXS
Bus Type Starlink V2M
Phase Status In Orbit
Owner/State SPXS/US

Large Constellations

Loading constellations...